Weather History for Moncks Corner, SC

Change the Weather History Date:

Sunday, June 30, 2013

  Actual Average (KCHS) Record (KCHS)
Temperature  
Mean Temperature 78 °F 81 °F  
Max Temperature 86 °F 90 °F 100 °F (1998)
Min Temperature 71 °F 72 °F 58 °F (1970)
Degree Days  
Heating Degree Days 0 0  
Month to date heating degree days 0  
Since 1 June heating degree days 1  
Since 1 July heating degree days 1976  
Cooling Degree Days 14 16  
Month to date cooling degree days 421  
Year to date cooling degree days 783  
Since 1 June cooling degree days 421  
Growing Degree Days 28 (Base 50)    
Moisture  
Dew Point 72 °F    
Average Humidity 86    
Maximum Humidity 94    
Minimum Humidity 66    
Precipitation  
Precipitation 2.11 in 0.22 in 2.33 in (2013)
Month to date precipitation 5.65  
Year to date precipitation 21.96  
Sea Level Pressure  
Sea Level Pressure 29.81 in    
Wind  
Wind Speed 4 mph (SSW)    
Max Wind Speed 12 mph    
Max Gust Speed 21 mph    
Visibility 8 miles    
Events Rain , Thunderstorm    
T = Trace of Precipitation, MM = Missing Value Source: NWS Daily Summary

Daily Weather History Graph

Daily Weather History Graph

Search for Another Location

Airport:

Trip Planner

Search our weather history database for the weather conditions in past years. The results will help you decide how hot, cold, wet, or windy it might be!

Date:

Astronomy

Jun. 30, 2013 Rise Set
Actual Time 6:14 AM EDT 8:33 PM EDT
Civil Twilight 5:45 AM EDT 9:01 PM EDT
Nautical Twilight 5:10 AM EDT 9:37 PM EDT
Astronomical Twilight 4:32 AM EDT 10:15 PM EDT
Moon 12:57 AM EDT (6/30) 1:59 PM EDT (6/30)
Length of Visible Light 15h 16m
Length of Day
14h 18m
Last Quarter, 45% of the Moon is Illuminated
Jun 30
Last Quarter
Jul 8
New
Jul 15
First Quarter
Jul 22
Full
Jul 29
Last Quarter

Hourly Weather History & Observations

Time (EDT) Temp. Heat Index Dew Point Humidity Pressure Visibility Wind Dir Wind Speed Gust Speed Precip Events Conditions
12:15 AM 78.8 °F - 73.4 °F 83% 29.78 in 10.0 mi SSW 5.8 mph - N/A   Mostly Cloudy
12:35 AM 77.0 °F - 73.4 °F 89% 29.77 in 7.0 mi South 4.6 mph - N/A   Scattered Clouds
12:55 AM 77.0 °F - 73.4 °F 89% 29.77 in 7.0 mi South 5.8 mph - N/A   Scattered Clouds
1:15 AM 77.0 °F - 71.6 °F 83% 29.77 in 3.0 mi SSW 11.5 mph 20.7 mph 0.12 in Rain Heavy Rain
1:35 AM 75.2 °F - 71.6 °F 89% 29.77 in 10.0 mi SSW 6.9 mph - 0.12 in   Scattered Clouds
1:55 AM 75.2 °F - 71.6 °F 89% 29.77 in 10.0 mi South 5.8 mph - 0.12 in   Mostly Cloudy
2:15 AM 75.2 °F - 71.6 °F 89% 29.76 in 10.0 mi SSW 3.5 mph - N/A   Scattered Clouds
2:35 AM 75.2 °F - 71.6 °F 89% 29.76 in 10.0 mi SW 3.5 mph - N/A   Mostly Cloudy
2:55 AM 75.2 °F - 71.6 °F 89% 29.76 in 7.0 mi SSW 3.5 mph - N/A   Overcast
3:15 AM 75.2 °F - 73.4 °F 94% 29.75 in 5.0 mi SSW 6.9 mph - 0.06 in Rain , Thunderstorm Heavy Thunderstorms and Rain
3:35 AM 77.0 °F - 73.4 °F 89% 29.76 in 2.5 mi SW 6.9 mph - 0.31 in Rain , Thunderstorm Heavy Thunderstorms and Rain
3:55 AM 75.2 °F - 73.4 °F 94% 29.75 in 3.0 mi SW 6.9 mph - 0.65 in Rain , Thunderstorm Heavy Thunderstorms and Rain
4:15 AM 77.0 °F - 73.4 °F 89% 29.74 in 7.0 mi SSW 3.5 mph - N/A   Mostly Cloudy
4:35 AM 77.0 °F - 73.4 °F 89% 29.74 in 7.0 mi Calm Calm - 0.01 in   Overcast
4:55 AM 77.0 °F - 73.4 °F 89% 29.75 in 3.0 mi South 5.8 mph - 0.06 in Rain , Thunderstorm Rain
5:15 AM 75.2 °F - 73.4 °F 94% 29.76 in 10.0 mi South 4.6 mph - N/A Rain , Thunderstorm Thunderstorms and Rain
5:35 AM 75.2 °F - 71.6 °F 89% 29.76 in 7.0 mi South 3.5 mph - 0.08 in Rain , Thunderstorm Light Thunderstorms and Rain
5:55 AM 75.2 °F - 71.6 °F 89% 29.77 in 10.0 mi Calm Calm - 0.09 in Rain Light Rain
6:15 AM 75.2 °F - 71.6 °F 89% 29.77 in 10.0 mi Calm Calm - N/A   Mostly Cloudy
6:35 AM 75.2 °F - 71.6 °F 89% 29.78 in 10.0 mi Calm Calm - N/A   Mostly Cloudy
6:55 AM 75.2 °F - 71.6 °F 89% 29.79 in 7.0 mi Calm Calm - N/A   Overcast
7:15 AM 75.2 °F - 73.4 °F 94% 29.79 in 7.0 mi Calm Calm - N/A   Overcast
7:35 AM 75.2 °F - 73.4 °F 94% 29.80 in 5.0 mi Calm Calm - N/A   Scattered Clouds
7:55 AM 77.0 °F - 73.4 °F 89% 29.80 in 7.0 mi Calm Calm - N/A   Clear
8:15 AM 77.0 °F - 73.4 °F 89% 29.80 in 7.0 mi Calm Calm - N/A   Mostly Cloudy
8:35 AM 77.0 °F - 75.2 °F 94% 29.80 in 7.0 mi SSW 3.5 mph - N/A   Overcast
8:55 AM 78.8 °F - 75.2 °F 89% 29.80 in 7.0 mi SSW 4.6 mph - N/A   Overcast
9:15 AM 80.6 °F 86.2 °F 75.2 °F 84% 29.80 in 10.0 mi SSW 4.6 mph - N/A   Mostly Cloudy
9:35 AM 82.4 °F 89.5 °F 75.2 °F 79% 29.81 in 7.0 mi SW 6.9 mph - N/A   Mostly Cloudy
9:55 AM 82.4 °F 89.5 °F 75.2 °F 79% 29.81 in 7.0 mi SSW 6.9 mph - N/A   Overcast
10:15 AM 82.4 °F 88.2 °F 73.4 °F 74% 29.81 in 10.0 mi WSW 4.6 mph - N/A Thunderstorm Overcast
10:35 AM 82.4 °F 88.2 °F 73.4 °F 74% 29.81 in 10.0 mi West 3.5 mph - N/A   Overcast
10:55 AM 84.2 °F 92.3 °F 75.2 °F 74% 29.81 in 7.0 mi SSW 6.9 mph - N/A Rain Light Rain
11:15 AM 82.4 °F 89.5 °F 75.2 °F 79% 29.80 in 10.0 mi SSW 9.2 mph - N/A   Overcast
11:35 AM 86.0 °F 95.1 °F 75.2 °F 70% 29.80 in 10.0 mi SSW 9.2 mph - N/A   Mostly Cloudy
11:55 AM 84.2 °F 90.9 °F 73.4 °F 70% 29.80 in 7.0 mi SSW 5.8 mph - N/A Thunderstorm Mostly Cloudy
12:15 PM 86.0 °F 93.4 °F 73.4 °F 66% 29.80 in 10.0 mi WSW 8.1 mph - N/A   Scattered Clouds
12:35 PM 84.2 °F 90.9 °F 73.4 °F 70% 29.81 in 7.0 mi SSW 4.6 mph - N/A   Scattered Clouds
12:55 PM 84.2 °F 90.9 °F 73.4 °F 70% 29.81 in 10.0 mi South 5.8 mph - N/A   Scattered Clouds
1:15 PM 78.8 °F - 73.4 °F 83% 29.82 in 1.0 mi South 3.5 mph - 0.02 in Rain Light Rain
1:35 PM 78.8 °F - 75.2 °F 89% 29.82 in 7.0 mi SSE 4.6 mph - 0.02 in   Scattered Clouds
1:55 PM 78.8 °F - 75.2 °F 89% 29.82 in 7.0 mi SSE 3.5 mph - 0.02 in Rain Light Rain
2:15 PM 77.0 °F - 73.4 °F 89% 29.81 in 10.0 mi Calm Calm - N/A Rain , Thunderstorm Light Thunderstorms and Rain
2:35 PM 78.8 °F - 75.2 °F 89% 29.81 in 10.0 mi SSE 8.1 mph - N/A   Light Drizzle
2:55 PM 82.4 °F 89.5 °F 75.2 °F 79% 29.79 in 10.0 mi SSE 6.9 mph - N/A   Scattered Clouds
3:15 PM 82.4 °F 89.5 °F 75.2 °F 79% 29.79 in 10.0 mi SE 10.4 mph - N/A   Scattered Clouds
3:35 PM 82.4 °F 88.2 °F 73.4 °F 74% 29.80 in 10.0 mi South 6.9 mph - N/A   Scattered Clouds
3:55 PM 82.4 °F 88.2 °F 73.4 °F 74% 29.80 in 10.0 mi SE 8.1 mph - N/A   Clear
4:15 PM 80.6 °F 84.6 °F 71.6 °F 74% 29.80 in 7.0 mi SE 5.8 mph - N/A   Clear
4:35 PM 78.8 °F - 73.4 °F 83% 29.81 in 10.0 mi South 4.6 mph - N/A   Mostly Cloudy
4:55 PM 77.0 °F - 73.4 °F 89% 29.81 in 10.0 mi SW 6.9 mph - 0.01 in Rain , Thunderstorm Light Thunderstorms and Rain
5:15 PM 75.2 °F - 71.6 °F 89% 29.84 in 4.0 mi SW 9.2 mph - 0.07 in Rain , Thunderstorm Heavy Thunderstorms and Rain
5:35 PM 73.4 °F - 69.8 °F 88% 29.84 in 4.0 mi South 9.2 mph - 0.16 in Rain , Thunderstorm Thunderstorms and Rain
5:55 PM 71.6 °F - 69.8 °F 94% 29.84 in 5.0 mi SW 3.5 mph - 0.28 in Rain , Thunderstorm Light Thunderstorms and Rain
6:15 PM 71.6 °F - 69.8 °F 94% 29.84 in 1.2 mi South 4.6 mph - 0.18 in Rain Heavy Rain
6:35 PM 71.6 °F - 68.0 °F 88% 29.84 in 2.5 mi SE 3.5 mph - 0.38 in Rain Light Rain
6:55 PM 71.6 °F - 68.0 °F 88% 29.84 in 10.0 mi Calm Calm - 0.38 in Rain , Thunderstorm Rain
7:15 PM 71.6 °F - 69.8 °F 94% 29.84 in 10.0 mi Calm Calm - 0.01 in Rain , Thunderstorm Light Thunderstorms and Rain
7:35 PM 71.6 °F - 68.0 °F 88% 29.85 in 1.5 mi Calm Calm - 0.35 in Rain Heavy Rain
7:55 PM 71.6 °F - 68.0 °F 88% 29.85 in 10.0 mi Calm Calm - 0.47 in Rain Light Rain
8:15 PM 71.6 °F - 68.0 °F 88% 29.85 in 7.0 mi ESE 3.5 mph - 0.03 in Rain Light Rain
8:35 PM 71.6 °F - 69.8 °F 94% 29.85 in 10.0 mi Calm Calm - 0.03 in   Scattered Clouds
8:55 PM 71.6 °F - 68.0 °F 88% 29.84 in 10.0 mi SE 3.5 mph - 0.03 in   Scattered Clouds
9:15 PM 71.6 °F - 68.0 °F 88% 29.84 in 10.0 mi East 3.5 mph - N/A Thunderstorm Scattered Clouds
9:35 PM 71.6 °F - 68.0 °F 88% 29.85 in 10.0 mi Calm Calm - N/A Thunderstorm Clear
9:55 PM 71.6 °F - 68.0 °F 88% 29.85 in 10.0 mi Calm Calm - N/A   Clear
10:15 PM 71.6 °F - 68.0 °F 88% 29.86 in 10.0 mi Calm Calm - N/A   Clear
10:35 PM 71.6 °F - 68.0 °F 88% 29.85 in 10.0 mi Calm Calm - N/A   Scattered Clouds
10:55 PM 71.6 °F - 68.0 °F 88% 29.86 in 10.0 mi Calm Calm - N/A   Clear
11:15 PM 71.6 °F - 68.0 °F 88% 29.86 in 10.0 mi Calm Calm - N/A   Clear
11:35 PM 71.6 °F - 68.0 °F 88% 29.87 in 10.0 mi Calm Calm - N/A   Clear
11:55 PM 71.6 °F - 69.8 °F 94% 29.87 in 10.0 mi Calm Calm - N/A   Scattered Clouds